OpenBCM V1.13 (Linux)

Packet Radio Mailbox

DB0FHN

[JN59NK Nuernberg]

 Login: GUEST





  
F1EBE  > KEPLER   16.02.03 17:24l 120 Lines 6320 Bytes #999 (0) @ EU
BID : 21838_F8KOH
Read: DB0FHN GUEST
Subj: 2L Satell  Meteo  045.jours
Path: DB0FHN<DB0ZWI<DB0CHZ<DB0ERF<DB0FBB<DB0GOS<ON0AR<ON0AR<IK1ZNW<HB9OK<
      ON0BEL<F6FUB<F6CDD<F6KBI<F4CEP<F1HCI<F6KBF<F1FPP<F8KGK<F8KAE<F8KOH
Sent: 030215/0910Z @:F8KOH.FNOR.FRA.EU #:21838 [Vernon] FBB7.00i $:21838_F8KOH
From: F1EBE@F8KOH.FNOR.FRA.EU
To  : KEPLER@EU


GOES 2                  
1 10061U 77048A   03041.64344854 -.00000146  00000-0  00000+0 0   846
2 10061  14.1321  13.4869 0012973 199.7553 160.2330  0.99401033 38751
GOES 6                  
1 14050U 83041A   03045.06044567  .00000046  00000-0  10000-3 0  4236
2 14050  10.3954  35.5327 0003702 343.9733  16.0992  1.00301517130596
GOES 7                  
1 17561U 87022A   03044.65377119  .00000054  00000-0  10000-3 0  8520
2 17561   7.5929  55.5730 0005493 262.9595 241.6680  1.00251772 41690
INSAT 1D                
1 20643U 90051A   03045.70730990 -.00000058  00000-0  10000-3 0  8871
2 20643   4.1906  80.9076 0014156 324.0825  65.6334  1.00285097 33283
FENGYUN 1B              
1 20788U 90081A   03044.96676263 -.00000117  00000-0 -47176-4 0  8864
2 20788  99.0263  27.1917 0015055 242.7523 117.2109 14.02133833636895
METEOSAT 5 (MOP 2)      
1 21140U 91015B   03044.84738637  .00000025  00000-0  10000-3 0  7169
2 21140   5.6186  69.9808 0002462 151.7330 289.5916  1.00273025 46000
NOAA 12                 
1 21263U 91032A   03044.99014862  .00000400  00000-0  18904-3 0  9684
2 21263  98.6256  34.6946 0013635  37.5124 322.7005 14.25078084610560
METEOR 3-5              
1 21655U 91056A   03044.96396556  .00000051  00000-0  10000-3 0  6560
2 21655  82.5538  42.1111 0012584 206.9359 153.1111 13.16979635552876
INSAT 2A                
1 22027U 92041A   03042.86952779 -.00000133  00000-0  10000-3 0  5472
2 22027   4.5963  78.0602 0004875 317.0810  42.9943  1.00226040 38613
INSAT 2B                
1 22724U 93048B   03045.39283582 -.00000352  00000-0  10000-3 0  3251
2 22724   2.1012  90.5205 0002119 256.7487  49.5991  1.00268852 35353
METEOR 2-21             
1 22782U 93055A   03044.97847031  .00000087  00000-0  65718-4 0  5175
2 22782  82.5466 218.5329 0022513   2.5377 357.5893 13.83532102477456
METEOSAT 6              
1 22912U 93073B   03041.98342015  .00000074  00000-0  00000+0 0  6759
2 22912   2.6574  82.5051 0000882 234.1423 187.7120  1.00280377 32223
GOES 8                  
1 23051U 94022A   03043.39643089 -.00000242  00000-0  00000+0 0  6029
2 23051   0.2821 103.2549 0000983 302.7965 163.7640  1.00279312 39747
ELEKTRO                 
1 23327U 94069A   03038.63963039 -.00000011  00000-0  10000-3 0  7342
2 23327   5.2471  74.8250 0004555 156.0407 204.0912  1.00258886 30331
NOAA 14                 
1 23455U 94089A   03044.94323578  .00000181  00000-0  12164-3 0  5242
2 23455  99.1879  63.3898 0008606 240.9870 119.0440 14.13295527418822
GMS 5                   
1 23522U 95011B   03044.17180416 -.00000275  00000-0  00000+0 0   983
2 23522   1.7586  83.3644 0000205 326.3075 294.9302  1.00279462 28835
GOES 9                  
1 23581U 95025A   03044.38809957  .00000138  00000-0  00000+0 0  5144
2 23581   0.2860 277.7330 0011864 252.3085 320.0546  1.00055954 28314
INSAT 2C                
1 23731U 95067B   03044.97456240  .00000129  00000-0  10000-3 0  8783
2 23731   0.7765 106.6839 0002064  51.1762  24.5479  1.00275166 26344
GOES 10                 
1 24786U 97019A   03044.37317537  .00000094  00000-0  00000+0 0  5437
2 24786   0.1352 105.6450 0002031 249.9516 147.0590  1.00257624 21289
FENGYUN 2A              
1 24834U 97029A   03044.63612962 -.00000187  00000-0  00000+0 0  9585
2 24834   2.5587  88.4937 0001546 210.5667 158.6701  1.00283691 20798
ORBVIEW 2 (SEASTAR)     
1 24883U 97037A   03045.55669610  .00000673  00000-0  15262-3 0   380
2 24883  98.2180 146.5395 0001280 174.7548 185.3665 14.59186301294765
METEOSAT 7              
1 24932U 97049B   03043.10917475  .00000008  00000-0  00000+0 0  2476
2 24932   0.1942  59.3598 0001228 267.9267 214.0890  1.00278260 19953
NOAA 15                 
1 25338U 98030A   03044.96159203  .00000211  00000-0  10992-3 0    75
2 25338  98.5502  67.2366 0010403 335.7137  24.3551 14.24242449247143
RESURS O1-N4            
1 25394U 98043A   03044.92778735  .00000162  00000-0  89802-4 0  4496
2 25394  98.6314 122.9420 0002331 112.3262 247.8163 14.23876290238873
INSAT 2E                
1 25666U 99016A   03044.64191935 -.00000159  00000-0  10000-3 0  6334
2 25666   0.0181 171.3065 0003716 203.3888  82.6223  1.00271729 14297
FENGYUN 1C              
1 25730U 99025A   03044.97538876 -.00000014  00000-0  15404-4 0  7729
2 25730  98.6342  69.5476 0014712  19.2973 340.8754 14.11732967193986
QUIKSCAT                
1 25789U 99034A   03044.93742782  .00000106  00000-0  62020-4 0  7392
2 25789  98.6312 232.0640 0000778 124.0751 236.0508 14.26580681190321
INSAT 3B                
1 26108U 00016B   03042.61046086 -.00000156  00000-0  10000-3 0  3906
2 26108   0.0407 122.9956 0005547 195.5723 125.4273  1.00271834 10615
GOES 11                 
1 26352U 00022A   03043.42718782 -.00000027  00000-0  10000-3 0   198
2 26352   0.1255 104.3005 0003581 195.9369 242.3438  1.00264823 10176
FENGYUN 2B              
1 26382U 00032A   03044.70694568 -.00000324  00000-0  00000+0 0  7944
2 26382   0.5813 287.6003 0001562 229.0482 345.4905  1.00279090  9666
NOAA 16                 
1 26536U 00055A   03044.62128179  .00000613  00000-0  35949-3 0  2063
2 26536  98.9012 352.9413 0010346 324.3152  35.7318 14.11903458123452
GOES 12                 
1 26871U 01031A   03044.63803907 -.00000152  00000-0  10000-3 0  8189
2 26871   0.3394 276.4190 0003237   5.2648 355.1756  1.00363016  5786
METEOR-3M               
1 27001U 01056A   03044.91339368  .00000138  00000-0  21472-3 0  1796
2 27001  99.5924 283.0436 0013547 264.6410  95.3189 13.68199094 58838
INSAT 3C                
1 27298U 02002A   03044.66840727 -.00000072  00000-0  00000+0 0  2197
2 27298   0.0924 109.5705 0002256 124.5236 223.8172  1.00271920  3897
FENGYUN 1D              
1 27431U 02024B   03044.97944753 -.00000074  00000-0 -18103-4 0  2177
2 27431  98.7704  94.0852 0015986 135.3913 224.8546 14.09176981 38723
NOAA 17                 
1 27453U 02032A   03044.92587328  .00000300  00000-0  15197-3 0  3031
2 27453  98.7595 116.1626 0012191  14.2238 345.9279 14.23290786 33303
MSG-1                   
1 27509U 02040B   03042.98832177 -.00000076  00000-0  00000-0 0  1146
2 27509   1.6837 302.6869 0001127  99.2365  84.8724  1.00272334  1768
METSAT 1                
1 27525U 02043A   03044.64627583 -.00000071  00000-0  00000+0 0   935
2 27525   0.1241 259.7760 0008050   5.6327 184.4657  1.00272158  1588



Read previous mail | Read next mail


 15.06.2026 17:57:17lGo back Go up